Overview Statistics Trail Chart Weather Telemetry Raw packets
 

This is the latest recevied weather packets stored in our database for station/object KC1TEM-13. If no packets are shown the sender has not sent any weather packets the latest 10 day(s).

<< 37 38 39 40 41 42 43 >>
Time Temp. Humidity Pressure Rain* Wind** Luminosity Snow
1788364809 21.11° C 82% 1023.4 hPa 0 mm - 286 W/m² -
1788364502 20.56° C 78% 1023.6 hPa 0 mm - 615 W/m² -
1788364201 20.56° C 82% 1023.5 hPa 0 mm - 373 W/m² -
1788363896 21.11° C 81% 1023.6 hPa 0 mm - 463 W/m² -
1788363591 20.56° C 83% 1023.5 hPa 0 mm - 280 W/m² -
1788363289 20.56° C 81% 1023.5 hPa 0 mm - 580 W/m² -
1788362985 20° C 83% 1023.6 hPa 0 mm - 271 W/m² -
1788362681 20° C 85% 1023.8 hPa 0 mm - 280 W/m² -
1788362377 20° C 85% 1023.8 hPa 0 mm - 303 W/m² -
1788362073 20° C 85% 1023.8 hPa 0 mm - 244 W/m² -
1788361772 20° C 84% 1023.9 hPa 0 mm - 185 W/m² -
1788361468 20° C 84% 1023.7 hPa 0 mm - 252 W/m² -
1788361168 20° C 87% 1023.9 hPa 0 mm - 262 W/m² -
1788360863 20° C 87% 1023.7 hPa 0 mm - 236 W/m² -
1788360558 20° C 85% 1023.5 hPa 0 mm - 212 W/m² -
1788360254 20° C 86% 1023.5 hPa 0 mm - 217 W/m² -
1788359954 20° C 83% 1023.4 hPa 0 mm - 170 W/m² -
1788359649 20° C 86% 1023.1 hPa 0 mm - 509 W/m² -
1788359344 20° C 84% 1023.3 hPa 0 mm - 301 W/m² -
1788359041 19.44° C 87% 1023.2 hPa 0 mm - 592 W/m² -
1788358736 19.44° C 88% 1023.1 hPa 0 mm - 279 W/m² -
1788358431 19.44° C 89% 1022.9 hPa 0 mm - 277 W/m² -
1788358130 19.44° C 88% 1023.1 hPa 0 mm - 250 W/m² -
1788357826 18.89° C 92% 1023 hPa 0 mm - 370 W/m² -
1788357530 18.89° C 92% 1022.8 hPa 0 mm - 259 W/m² -

* Rain latest hour (hover to see other rain measurements)
** Current wind speed in m/s (hover to see current wind gust speed)